ATLAS 5 CENTAUR DEB, 49360

Orbit data source: Space-Track

ATLAS 5 CENTAUR DEB, 49360 is space debris in HEO originally from a launch on Wed, 17 Oct 2018 UTC launched from the Air Force Eastern Test Range (AFETR). Debris objects in space refer to the collection of defunct objects orbiting the Earth. Examples of debris include non-operational satellites, rocket bodies, and fragments generated from explosions, collisions, or faulty payload assembly.

Loading next visibility...
Identifier
49360, 2018-079FM
Orbit
HEO
Country
Flag of USUS
Related business
Flag of USUnited Launch Alliance/Lockheed Martin (US)
Manufacturer
ULA Decatur
Mission
Spacecraft
Bus & Motor
Unknown
Mass
Unknown
Launch date (UTC)
2018-10-17 (8 years ago)
Launch vehicle
Unknown
Launch site
Air Force Eastern Test Range (AFETR)
Object type
Payload
Rocket body
Debris
Shape & HBR
Unknown shape, 1.1 m
Radar Cross Section
Medium (>0.1 m² and <1 m²)

Expand to show TLE details & history
Last TLE update: 3 weeks ago

TLE from 3 weeks ago
0 ATLAS 5 CENTAUR DEB
1 49360U 18079FM  26212.89459717 -.00000112  00000-0  00000-0 0  9995
2 49360  12.9948  38.9651 4365978 318.6246  15.3041  1.88107903 33817
Epoch: 2026-07-31T21:28Z
TLE epoch observation values (Epoch: 2026-07-31T21:28:13.195Z)
Latitude
0.00001°
Longitude
127.44674°
Altitude
10,535.513 km
Speed
5.723 km/s
True Right ascension
02h 36m 03s
True Declination
0° 00' 00"
Sunlit
Object was in daylight at epoch
Visualization orbit readout
Latitude
Unknown
Longitude
Unknown
Altitude
Unknown
Speed
Unknown
Apparent Right ascension
Unknown
Apparent Declination
Unknown
Sunlit
N/A
Visualization observer readout
Local Sidereal Time
17:50:08
Azimuth
Unknown
Elevation
Unknown
Doppler factor
Unknown
Orbital elements
Apogee altitude
33,447.635 km
Perigee altitude
9,240.659 km
Semi-major axis
27,722.284 km
Eccentricity
0.4366
Inclination
12.9948°
RAAN
38.9651°
Arg. of periapsis
318.6246°
True anomaly
41.13001°
Mean anomaly
15.3041°
Eccentric anomaly
26.44391°
Mean motion
0.47022 °/min
Orbital period
765.6 mins
BSTAR
0
Loading maneuver chart data...
Computing Atmospheric mass density...

Documentation

Showing up to 5 results
|